RH
83 83 81 76 53 34 36 41 45 51 53 55 58 56 54 49 43 40 36 30 21 18 14 12 24 25 14 13 13 15 20 22 22 18 20 22 24 29 35 45 51 53 56 52 46 43 43 45 43 40 43 41 38 45 47 44 51 59 61 52 34 23
86 85 84 83 69 49 45 51 54 58 61 62 63 62 61 58 57 57 51 46 42 39 33 31 43 42 28 20 15 18 19 22 30 24 22 33 42 38 32 37 43 49 55 53 48 43 43 43 42 44 40 36 45 55 50 51 64 74 78 62 35 26
86 86 84 81 80 66 54 58 63 62 64 66 64 67 69 66 71 76 68 65 71 70 65 65 65 60 51 33 16 19 20 21 32 31 26 35 50 53 46 41 37 44 53 53 51 47 48 44 42 42 35 45 60 58 60 71 77 84 83 53 31 33
86 85 85 79 81 78 66 71 78 71 72 76 74 77 81 79 82 86 81 78 83 83 80 79 75 69 57 35 20 19 18 19 27 32 35 35 45 55 58 56 46 44 48 55 64 67 71 57 40 40 45 63 66 60 76 86 84 87 85 57 37 39
87 83 85 80 81 84 76 79 85 81 86 91 86 85 86 86 88 89 87 86 86 84 82 81 80 77 65 48 36 26 18 19 22 28 39 42 46 52 60 67 59 51 50 64 80 81 82 66 46 50 58 63 62 72 86 85 86 85 86 69 43 42
85 80 81 80 80 80 77 82 88 89 95 96 88 88 89 90 92 88 87 90 89 84 81 84 84 82 78 70 56 40 32 30 25 22 32 43 48 50 65 74 65 64 67 77 81 65 61 61 60 65 59 52 58 80 88 84 86 78 85 81 51 47
82 78 79 83 84 85 85 91 98 97 99 99 93 93 95 94 91 88 89 91 89 85 83 84 83 80 81 82 72 54 52 57 50 30 21 41 53 52 71 82 75 77 78 80 77 56 52 58 68 74 59 47 57 79 88 84 84 76 84 86 59 49
84 85 90 94 95 97 97 99 101 95 96 100 97 98 100 95 92 94 95 92 88 87 89 88 84 81 79 84 83 66 59 66 68 50 26 36 52 51 70 86 80 78 75 81 81 67 65 63 65 74 64 51 55 74 86 84 84 80 81 89 73 54
91 94 99 98 99 101 98 99 97 92 93 94 95 100 100 96 97 100 96 92 90 90 94 96 88 83 82 82 86 76 62 59 65 65 45 36 39 40 63 84 80 77 76 81 81 73 72 66 63 73 72 58 54 70 85 87 88 84 82 93 86 59
94 98 100 98 100 99 94 92 92 93 91 89 96 99 97 97 96 97 95 93 96 96 96 100 94 85 83 81 84 79 67 63 61 63 58 44 30 23 44 72 79 80 81 82 78 72 70 71 72 77 78 63 57 74 86 89 89 88 87 90 86 66
92 94 99 100 99 99 95 91 91 92 87 89 98 95 91 92 89 90 90 92 97 95 92 99 98 88 82 78 81 83 74 70 64 57 58 50 31 19 28 55 74 78 83 85 83 79 74 79 82 76 75 64 63 80 90 93 92 91 89 88 91 83
92 90 94 97 97 99 97 90 88 91 86 85 89 89 87 85 89 93 88 90 96 93 92 94 94 91 87 78 76 86 86 81 75 62 61 57 41 29 28 47 67 71 77 84 85 82 77 82 84 75 74 67 65 80 90 95 97 93 89 89 96 95
94 91 89 88 89 91 89 85 85 89 86 82 85 90 89 83 88 92 83 85 90 93 95 87 87 90 89 82 73 78 83 84 85 73 69 70 56 40 35 45 58 61 67 77 81 79 76 81 81 77 77 70 67 76 79 84 91 91 91 95 95 94
93 90 87 83 81 82 82 83 87 90 87 84 88 88 85 80 79 79 78 83 86 87 88 82 84 86 84 86 78 75 75 77 86 82 76 77 70 57 46 51 64 65 62 69 79 78 75 79 79 79 76 68 67 71 74 78 83 87 92 97 93 88
88 87 87 84 80 80 81 83 88 92 90 88 88 83 82 81 76 73 78 88 88 82 79 78 82 83 82 85 84 84 79 75 82 85 82 77 74 72 61 60 71 72 66 66 76 79 75 74 76 80 73 63 65 69 79 84 82 86 92 94 85 81
83 83 87 86 82 82 81 82 85 88 89 87 84 85 85 84 81 79 80 87 87 82 80 81 83 86 87 86 85 88 85 83 84 86 92 86 76 79 76 71 67 60 63 71 79 82 79 76 76 79 68 57 60 68 84 89 83 86 88 86 80 77
83 86 86 87 84 81 78 78 83 85 88 87 86 89 89 85 85 84 81 79 80 82 81 81 87 91 89 83 81 82 82 87 87 85 94 92 82 81 80 78 71 58 60 75 87 88 80 76 78 77 61 55 67 75 86 89 85 85 81 79 78 78
83 88 85 87 89 86 82 82 86 90 92 89 89 91 90 89 88 84 77 72 76 80 76 76 84 92 88 80 78 80 81 82 82 82 85 88 86 85 85 85 80 70 66 76 89 91 82 74 80 80 60 60 79 82 85 89 85 82 79 79 81 84
77 85 87 91 94 94 94 93 92 94 96 94 92 91 89 89 88 85 77 70 74 75 73 74 77 85 88 83 80 78 80 78 77 78 78 82 87 90 91 89 88 84 76 81 93 96 86 76 80 80 61 63 82 88 92 94 87 80 78 81 84 87
80 88 94 95 95 94 94 95 94 96 98 97 95 93 90 88 86 87 82 74 74 73 74 77 76 78 81 84 82 75 76 76 75 80 81 81 85 89 87 86 95 93 82 88 99 96 85 74 74 74 69 75 88 96 100 97 90 85 83 85 85 85
93 96 98 98 97 94 89 93 98 98 96 92 92 93 91 91 90 90 88 81 77 73 72 78 83 82 80 82 82 76 74 72 69 72 76 79 83 87 85 88 99 95 86 91 95 87 78 72 74 81 88 94 96 99 101 97 93 91 91 91 88 88
98 97 97 99 99 97 94 97 99 96 94 90 90 92 92 93 92 90 89 81 72 70 74 80 84 83 80 78 75 75 75 73 69 65 68 75 80 83 84 90 100 98 96 96 91 82 73 74 82 88 95 99 99 100 99 96 94 94 97 96 94 96
98 95 97 99 98 98 99 97 98 97 95 93 93 94 94 95 94 91 91 86 76 73 79 82 81 80 79 76 76 77 74 70 66 64 69 74 80 83 78 87 99 95 95 97 97 90 74 74 85 89 93 98 99 99 99 99 98 94 93 94 96 99
97 95 95 96 95 97 98 95 97 98 97 98 97 95 95 95 93 91 94 97 91 84 83 80 76 78 78 74 76 79 76 69 62 64 70 70 79 82 71 86 100 87 86 94 97 95 79 74 84 89 91 93 95 97 96 97 100 93 87 93 100 99
94 93 93 94 95 95 97 94 93 94 95 97 96 94 94 94 94 91 91 96 96 91 88 82 76 76 75 71 74 80 83 80 74 73 71 65 75 81 73 84 92 81 82 87 83 86 84 81 88 93 91 90 93 94 89 87 91 93 92 96 98 95
94 91 91 94 97 97 98 97 96 96 95 92 92 95 97 98 98 94 89 85 85 87 86 83 81 83 83 79 78 82 86 87 86 81 75 70 75 83 79 80 84 83 84 82 75 76 82 85 90 96 92 88 89 86 83 84 86 93 97 96 92 94
91 90 90 93 98 98 96 98 100 100 95 88 87 91 97 101 99 96 96 89 80 83 84 84 86 88 91 90 87 87 89 92 94 88 83 83 83 83 81 82 88 88 84 83 81 77 81 87 90 92 90 88 88 82 82 87 86 88 94 96 96 97
90 91 91 92 96 96 96 98 100 100 98 93 89 88 91 94 89 83 86 88 82 81 83 87 90 89 93 97 96 96 95 95 97 95 91 91 90 85 82 88 93 91 87 87 84 77 79 90 94 94 96 96 91 83 82 89 87 81 83 91 99 99
95 94 92 91 91 94 98 98 99 100 99 99 97 95 92 90 89 84 78 77 76 75 77 84 89 92 96 99 99 99 98 97 98 99 96 95 95 92 89 92 92 90 88 86 82 78 81 89 95 94 97 101 96 87 86 92 92 84 77 80 89 94
88 91 93 95 94 95 98 98 99 99 98 98 97 95 94 91 92 92 86 81 76 72 73 79 86 92 97 100 100 100 99 98 98 99 98 98 99 98 94 91 88 84 81 78 76 81 86 90 93 93 95 99 94 87 86 89 91 88 81 75 79 85
77 79 85 90 89 90 93 95 99 99 98 99 96 94 96 93 92 90 86 89 90 80 72 74 81 88 94 98 100 100 99 98 98 99 98 98 100 98 91 86 84 79 75 75 76 81 87 91 94 92 90 93 90 84 85 85 84 84 81 76 75 78
79 69 70 75 76 81 87 92 97 97 96 98 98 96 95 91 88 86 82 84 88 81 72 72 77 82 88 96 100 99 98 99 98 98 99 100 100 98 90 84 84 79 74 72 74 79 83 87 92 87 84 91 92 87 84 82 82 81 79 77 75 78
87 78 79 83 84 87 88 87 91 93 92 93 93 92 94 90 82 77 74 72 76 76 76 78 76 77 83 93 99 99 97 100 97 94 97 100 99 97 91 89 86 80 75 71 72 79 82 86 91 88 88 94 93 87 83 83 84 82 81 80 77 77
92 89 90 92 92 92 91 88 88 91 89 88 89 86 85 86 80 73 68 63 65 68 72 75 75 76 85 93 98 99 99 100 98 95 97 99 99 97 93 92 86 78 76 73 74 81 84 88 92 92 96 98 92 88 87 88 86 84 86 83 78 77
89 86 89 92 88 87 94 95 91 91 90 89 91 89 81 78 74 71 67 61 60 61 62 66 72 79 88 94 96 98 98 98 99 99 97 96 96 95 94 91 84 78 77 72 72 80 85 90 92 91 94 94 93 91 87 88 88 85 84 80 77 80
91 91 92 88 74 70 80 85 81 79 79 77 80 89 93 87 74 66 65 62 58 57 56 60 70 78 82 89 94 97 98 99 99 95 89 87 90 92 92 88 82 77 73 69 73 83 87 88 87 89 95 93 90 87 81 83 89 87 84 80 79 82
98 96 89 80 68 66 71 76 77 71 65 68 77 89 97 92 82 72 65 63 60 56 53 56 64 69 72 82 91 94 97 98 95 92 88 88 89 92 92 86 79 72 69 73 83 90 90 88 86 87 93 93 85 83 85 88 92 91 87 84 81 81
Wind_Speed
15 14 14 13 13 13 13 12 11 10 10 9 9 8 8 8 8 8 8 9 9 10 11 12 12 12 13 14 15 14 13 12 11 11 10 9 9 10 11 11 10 10 10 10 11 13 13 13 13 14 14 13 14 14 14 14 13 11 10 9 7 7
15 14 14 14 14 14 14 13 13 12 12 11 10 9 8 8 8 8 9 9 8 7 8 8 9 11 12 14 16 15 15 14 14 14 12 12 12 11 11 11 10 9 8 8 9 10 11 11 11 12 12 12 13 13 12 12 12 11 9 7 6 6
15 15 15 15 14 14 14 13 12 12 12 11 10 9 8 8 8 8 8 7 7 7 7 6 7 9 11 14 17 17 17 16 16 16 14 14 14 13 11 11 10 9 8 7 7 7 8 8 9 9 10 11 12 11 9 9 10 10 7 6 6 5
15 15 15 15 15 14 14 13 12 11 10 10 10 9 9 8 8 10 9 8 9 9 9 9 10 10 10 13 16 17 18 17 18 18 17 16 15 14 12 10 10 10 9 8 7 6 6 6 7 8 9 10 10 8 7 7 7 8 6 5 5 5
15 15 15 15 15 15 15 14 13 12 11 11 11 10 10 9 10 12 11 10 10 10 9 10 11 10 9 10 13 16 17 17 19 19 18 18 17 16 13 11 11 11 10 9 8 8 7 5 6 7 8 9 8 6 6 6 6 7 6 4 6 5
14 14 15 15 15 15 15 13 13 13 13 13 12 10 10 11 12 13 12 11 10 10 9 10 10 11 10 10 12 14 16 16 18 20 20 20 19 18 13 11 11 11 10 10 10 9 8 6 6 6 6 7 6 5 6 6 6 6 5 4 6 5
13 14 15 15 14 13 13 11 11 12 12 12 13 12 11 12 13 13 13 12 12 10 10 10 11 11 11 11 12 13 15 15 15 18 21 20 19 19 14 11 12 12 12 12 11 10 8 7 7 6 5 5 5 5 5 5 5 5 4 4 6 5
12 13 13 13 12 11 11 11 11 11 10 12 13 13 12 13 14 13 14 14 13 12 10 10 11 12 12 12 12 13 14 14 13 15 20 20 19 20 16 13 13 13 13 13 12 11 9 7 7 6 5 4 4 4 5 5 5 5 4 3 4 4
10 10 10 11 11 11 12 12 10 10 10 12 12 12 13 13 13 13 14 15 14 13 11 10 11 12 12 12 12 12 14 15 14 14 18 20 21 22 18 14 14 14 14 13 12 11 10 8 7 6 5 3 3 3 4 4 4 6 5 3 3 3
10 10 10 11 11 12 12 12 11 11 12 11 11 12 14 13 13 14 15 15 14 14 12 11 12 12 12 13 13 13 14 15 15 15 17 19 22 24 21 15 14 14 14 13 12 11 10 8 7 6 5 4 3 3 4 5 4 5 5 3 3 3
12 12 11 11 11 12 12 12 12 12 13 12 11 13 14 13 14 15 15 15 15 15 15 13 13 14 13 13 14 15 15 15 16 17 16 18 21 24 23 18 14 14 14 13 12 11 10 8 7 6 6 4 3 4 4 4 5 5 4 3 2 3
10 11 12 11 11 12 12 13 13 13 13 14 13 13 13 13 14 14 15 15 16 17 17 17 16 15 14 14 15 15 15 15 15 16 16 17 20 23 24 20 16 15 15 13 13 12 11 10 9 7 6 5 4 4 4 3 4 5 5 3 2 2
9 9 11 12 13 13 14 13 14 14 14 14 14 13 12 13 14 14 14 15 16 17 18 18 16 15 15 14 15 15 15 15 15 16 16 15 18 22 25 23 18 17 16 14 13 12 11 10 10 8 7 6 5 4 4 3 3 4 5 4 4 3
8 8 10 12 13 14 14 14 14 15 15 14 13 12 11 13 14 14 14 14 16 16 16 17 17 17 16 14 16 16 15 15 16 17 17 16 17 20 24 23 19 18 18 15 13 13 13 11 10 9 8 7 6 5 4 4 4 5 5 4 5 5
8 9 10 12 12 12 13 13 14 14 14 13 12 12 13 13 15 15 15 15 16 15 15 17 18 18 17 15 15 15 15 16 19 19 18 18 18 18 20 20 18 18 18 16 15 14 14 12 11 10 10 9 7 7 6 5 6 6 6 5 5 5
7 9 10 11 12 13 13 13 14 14 13 12 13 14 14 14 15 16 16 17 16 14 15 18 19 19 18 16 15 14 15 17 20 20 18 20 19 17 17 17 18 19 18 16 16 15 14 13 12 12 11 10 9 9 7 6 7 7 6 5 4 6
5 7 9 10 11 13 14 13 13 13 14 13 14 15 14 14 14 15 17 19 18 15 15 17 19 20 18 16 15 15 15 15 18 18 17 20 21 18 17 17 18 19 19 18 16 16 15 14 12 12 11 11 10 9 8 7 8 8 7 5 5 5
6 6 8 9 11 13 13 13 12 14 15 14 14 14 14 15 14 16 18 18 18 16 16 16 18 20 19 17 16 16 16 16 16 16 17 20 21 20 18 18 19 19 20 19 17 16 16 15 13 12 12 11 10 10 10 9 9 10 9 7 6 6
7 6 7 9 11 12 12 12 13 14 14 13 13 14 14 14 15 18 18 17 17 17 16 15 17 18 18 18 16 17 17 17 17 18 18 19 20 20 19 20 20 20 21 19 15 16 17 16 13 12 12 12 12 11 11 10 9 9 8 7 7 7
5 5 5 8 9 11 12 13 13 12 12 13 12 13 14 13 14 16 16 15 16 17 15 14 15 16 17 16 15 17 18 17 18 19 20 19 19 20 22 22 20 21 24 20 16 17 19 17 14 13 13 13 14 12 11 10 10 9 8 8 8 7
3 4 5 7 8 10 12 12 13 13 13 13 12 12 13 12 13 14 14 13 15 16 15 13 14 14 15 15 13 15 17 17 17 19 20 20 19 20 23 22 20 22 25 22 20 21 20 17 15 14 13 13 13 12 11 12 11 11 10 10 10 9
3 3 4 5 6 8 10 10 11 13 13 11 11 12 12 12 13 13 12 12 14 15 14 14 14 13 14 14 13 14 15 16 16 18 21 22 21 18 20 22 20 21 22 21 21 22 21 18 16 16 14 12 12 12 12 12 12 13 12 11 11 10
3 2 3 5 5 7 10 11 11 12 13 12 12 12 11 12 13 13 12 12 13 14 14 14 13 14 14 14 14 14 16 16 17 18 21 23 22 18 18 21 21 23 23 21 19 20 22 19 16 15 15 13 13 12 11 12 13 14 13 12 12 10
3 2 3 6 6 6 9 11 12 13 14 13 13 11 11 12 13 13 12 13 14 14 14 14 14 14 14 14 14 15 17 18 19 20 20 22 24 21 20 20 22 25 26 24 21 20 22 22 17 15 15 14 13 13 11 13 14 13 13 13 12 12
3 4 4 6 6 5 7 9 10 12 13 13 13 11 11 11 13 14 13 14 15 14 14 14 15 15 15 16 16 16 17 18 20 21 21 23 24 23 23 23 23 25 26 24 23 21 22 23 20 17 17 15 13 13 13 13 14 13 13 13 13 12
4 5 5 6 6 4 5 6 7 8 8 10 10 9 9 10 11 13 14 14 15 13 13 14 16 16 17 18 18 18 18 18 19 21 24 25 25 25 26 25 24 24 24 23 22 22 21 22 22 21 21 17 12 11 11 11 14 13 12 12 11 11
2 4 5 5 6 5 5 5 6 6 8 10 10 10 11 11 11 12 13 14 15 14 13 14 16 16 17 19 19 19 19 20 20 22 24 26 25 26 26 26 26 24 24 23 22 22 22 21 22 22 21 18 15 11 8 9 12 11 11 10 9 10
1 3 6 7 7 6 6 5 6 8 9 11 11 11 12 12 12 13 13 14 15 15 15 15 17 17 18 19 20 19 19 20 21 22 25 26 24 24 25 26 26 24 23 22 21 22 21 20 20 20 19 18 17 13 8 9 9 7 9 11 11 10
2 3 6 9 9 8 8 7 8 9 10 10 11 12 12 12 12 13 13 14 15 15 16 17 17 18 18 19 20 20 19 20 22 23 25 25 23 24 26 25 24 24 23 23 22 21 21 20 19 19 18 18 16 12 9 9 8 7 7 10 12 12
6 6 7 8 9 9 10 9 9 10 10 11 12 13 13 12 12 13 13 14 15 15 17 19 18 18 18 19 20 20 19 20 21 23 24 24 23 24 26 24 22 23 23 23 22 21 20 20 19 18 18 17 16 14 11 9 8 8 7 6 8 11
8 8 8 9 11 13 12 11 10 11 12 13 14 14 14 14 12 12 13 14 14 14 16 19 19 18 18 18 19 20 19 18 18 21 22 22 23 24 25 24 22 21 22 22 21 20 20 20 19 17 16 16 16 15 13 11 9 9 9 7 7 9
7 9 10 10 12 14 14 12 11 12 14 14 14 15 16 15 13 13 14 14 14 14 15 16 16 17 17 17 18 19 20 19 18 20 22 21 22 24 24 23 21 20 21 22 21 20 20 20 20 18 17 17 17 17 15 13 12 11 9 8 8 9
6 7 7 8 9 9 11 11 12 14 15 16 16 16 16 16 15 16 16 15 15 14 14 14 14 16 16 16 17 19 20 20 19 21 22 21 22 24 23 21 20 20 21 22 21 21 20 21 21 19 18 18 18 18 16 13 12 11 9 8 9 8
5 5 5 6 6 6 7 8 9 11 12 14 16 18 18 18 17 16 17 17 16 15 14 14 14 14 14 16 17 18 19 19 17 18 21 22 22 23 22 20 19 20 21 21 20 20 20 20 21 21 19 18 18 18 16 12 10 9 9 9 9 9
6 6 6 6 6 6 6 7 7 8 9 10 12 14 18 20 19 16 16 17 16 15 16 15 14 13 13 14 15 16 18 18 17 18 20 23 23 22 21 20 20 21 21 20 19 20 20 20 20 20 18 17 18 18 14 11 10 9 9 9 9 10
6 6 6 7 7 7 6 6 7 8 9 10 11 11 12 15 16 16 16 17 16 16 16 16 15 15 15 13 12 15 16 16 17 18 19 21 21 21 21 20 21 22 21 20 20 19 19 18 19 18 16 14 17 17 14 12 11 10 9 10 9 10
6 7 6 6 6 6 5 6 7 8 9 11 11 11 10 11 12 13 14 15 15 16 16 17 16 16 16 14 13 14 16 17 18 19 20 21 21 21 20 20 21 22 21 20 20 19 18 17 18 19 17 16 16 15 13 12 12 10 10 10 10 10
Wind_Direction
171 173 168 170 169 164 164 165 165 165 167 167 170 175 181 190 187 184 188 190 195 211 210 195 189 194 195 195 200 201 197 193 187 193 193 188 194 181 166 157 145 133 126 125 119 112 110 106 103 98 95 95 88 85 90 90 88 89 87 85 82 76
175 178 177 177 176 176 176 176 176 175 176 177 184 191 197 202 194 189 188 186 189 206 214 202 194 193 191 196 201 201 200 198 194 198 201 198 202 200 186 172 161 146 135 133 126 115 111 109 104 99 97 91 85 88 90 88 90 91 94 97 88 81
181 182 184 184 182 187 186 184 187 187 187 190 196 198 201 201 194 203 200 184 189 204 213 209 207 208 199 197 201 201 201 202 200 202 204 204 206 207 199 183 172 161 149 143 132 118 111 106 103 101 92 86 88 94 91 87 93 97 105 107 91 92
186 187 189 189 185 192 192 188 192 196 197 201 203 199 204 206 200 212 214 200 203 205 205 208 211 224 225 207 203 203 203 204 204 205 205 206 210 211 205 192 179 170 165 154 141 134 128 116 104 95 88 94 100 99 96 92 95 97 102 103 96 95
190 191 193 193 192 196 196 193 195 198 199 204 209 207 210 213 207 214 217 212 214 209 206 213 211 220 233 222 213 208 206 207 207 206 206 207 211 212 206 199 188 176 174 164 158 160 161 147 114 101 99 103 104 99 99 97 97 93 92 109 110 99
192 194 196 199 203 203 202 200 198 199 199 204 213 215 214 214 215 220 220 216 220 217 211 214 213 212 217 222 225 214 205 209 209 207 208 207 210 211 202 200 197 184 176 172 174 178 179 164 129 118 115 105 100 102 102 98 100 99 101 120 115 109
192 200 202 202 206 205 204 200 197 201 202 205 212 215 216 217 223 227 223 219 223 224 219 217 217 214 212 214 223 219 206 206 207 207 208 207 209 207 195 196 200 190 184 180 184 189 188 173 144 138 129 108 105 110 110 108 107 108 115 122 117 113
193 203 204 200 199 199 203 200 203 214 215 213 216 216 219 224 227 226 224 224 225 224 221 220 219 216 216 214 220 222 212 211 209 206 208 207 210 207 193 196 202 196 191 183 185 186 183 181 159 151 144 118 116 119 118 119 119 121 122 129 125 114
197 203 204 203 202 204 209 210 214 226 231 230 225 222 227 231 229 227 229 230 228 224 218 221 222 218 219 217 217 217 213 217 213 204 206 207 212 211 197 196 204 200 195 189 190 189 185 187 174 159 154 142 145 139 124 123 131 130 132 170 164 136
199 203 205 207 207 212 218 219 220 225 234 236 230 227 231 233 233 234 234 234 230 224 219 220 225 221 219 219 218 215 214 219 218 211 208 206 213 215 206 202 204 201 197 195 198 200 195 187 180 171 166 174 179 148 133 142 152 141 148 194 208 171
204 205 204 206 207 216 224 224 225 228 233 233 229 231 234 238 242 242 238 237 232 228 225 221 223 222 219 221 219 216 214 217 220 220 213 207 214 218 214 210 206 203 200 196 198 202 198 182 181 186 182 195 189 153 151 160 161 152 162 197 208 177
208 207 208 212 213 220 224 225 228 231 233 235 237 238 240 244 244 241 240 238 233 233 234 228 224 224 222 221 218 216 217 216 218 223 220 214 218 219 215 214 211 209 205 200 201 204 200 187 187 195 192 206 206 176 172 169 165 164 170 180 166 160
201 202 211 217 218 223 223 224 231 233 235 239 242 243 247 249 244 243 245 242 236 234 238 239 237 231 226 222 217 215 218 219 218 221 221 218 221 220 215 215 217 215 211 208 210 214 210 197 195 197 196 211 216 198 194 184 180 181 173 173 167 163
203 201 213 219 221 226 225 228 235 236 237 239 242 246 251 253 253 255 251 247 242 238 241 247 247 239 231 227 221 217 220 223 221 220 220 217 220 221 216 214 216 215 213 212 212 216 216 208 204 203 204 216 220 208 207 199 201 200 179 177 175 163
217 213 223 229 227 231 232 234 238 238 240 241 246 253 254 254 256 257 252 247 245 245 248 246 244 241 236 233 230 226 227 227 223 221 219 217 217 220 218 215 216 214 212 213 214 216 219 216 211 211 216 219 218 213 206 203 209 204 186 189 178 159
226 220 223 229 229 232 233 237 241 243 246 248 253 256 256 255 254 253 248 246 247 249 252 249 247 244 238 235 235 234 233 227 223 220 217 218 218 218 218 218 219 218 214 212 213 215 219 220 216 219 228 229 224 217 206 206 208 198 191 198 175 162
234 222 221 225 229 234 235 237 242 247 252 255 256 256 257 257 253 249 245 245 248 251 255 256 252 246 240 237 238 239 238 233 230 223 216 218 218 216 218 219 218 217 214 211 211 213 216 219 220 226 234 232 224 214 206 209 209 198 191 192 175 171
239 227 224 227 232 238 240 241 241 246 254 257 256 255 259 261 257 250 246 246 248 254 260 258 252 247 244 243 241 239 237 238 239 232 224 223 219 216 217 217 216 214 212 212 212 212 214 216 218 225 230 225 218 213 208 207 210 204 190 184 181 181
242 233 228 234 238 241 243 244 243 247 255 260 258 256 258 263 260 255 252 247 247 254 259 254 248 245 245 244 244 244 238 236 241 239 233 230 222 216 217 218 216 215 212 210 210 210 213 214 214 222 227 222 217 211 205 203 210 206 191 186 188 186
257 253 252 253 250 247 243 243 245 250 258 264 264 261 262 264 260 259 258 252 249 253 254 252 250 246 243 242 243 243 234 230 240 240 234 233 226 217 219 221 215 215 215 208 205 209 213 215 217 223 224 220 214 202 197 201 204 199 192 193 192 190
257 255 264 262 257 260 256 248 248 252 257 266 273 270 268 265 261 263 264 257 250 250 250 254 256 250 240 232 233 234 227 224 234 240 241 241 234 220 220 222 215 217 218 211 210 214 214 214 214 213 209 210 207 198 199 203 199 197 197 198 195 192
278 267 268 261 254 263 265 256 256 258 256 260 272 275 273 269 267 267 268 260 250 248 251 253 251 244 236 231 235 237 230 225 229 238 243 243 238 224 219 221 215 213 214 212 216 219 215 208 207 206 199 197 196 196 204 207 205 203 201 201 200 194
321 322 293 283 267 260 262 260 262 265 262 261 265 271 273 270 270 271 270 266 257 252 253 252 246 238 235 237 240 239 235 229 230 237 240 237 233 222 217 218 215 215 213 209 213 218 218 210 205 206 201 197 194 192 203 211 211 208 205 209 206 198
326 309 284 284 277 266 268 264 256 254 257 265 267 266 267 268 271 270 266 267 263 256 254 253 247 240 238 242 243 241 237 231 231 235 234 232 229 219 214 213 214 220 216 208 206 213 220 213 206 207 203 202 199 194 202 208 209 210 209 211 209 204
336 333 315 295 288 274 272 267 252 244 245 257 265 266 270 273 274 271 267 268 266 261 260 259 255 250 247 247 247 245 240 233 231 231 228 228 227 220 215 212 215 220 217 213 213 216 220 216 209 209 207 204 198 199 210 207 203 207 211 210 207 208
348 337 317 303 299 285 279 275 259 250 252 262 268 270 271 268 271 275 276 275 273 270 269 267 263 259 255 251 249 247 242 236 231 229 226 224 224 221 218 216 217 220 218 218 221 222 223 221 215 210 210 209 198 196 206 200 193 193 200 209 206 204
351 320 307 304 298 287 279 276 266 261 263 266 267 267 265 262 266 274 278 282 284 280 276 274 269 263 259 256 252 246 240 236 231 228 224 220 219 219 217 217 219 221 219 217 220 224 224 225 219 213 215 216 210 205 200 193 194 185 182 195 201 203
317 301 295 294 293 285 273 270 269 264 262 263 265 265 266 269 275 276 276 281 286 285 284 282 277 270 263 258 255 248 240 237 231 224 221 218 217 215 213 216 218 218 218 216 217 221 225 227 220 213 216 217 217 219 209 195 203 200 183 183 188 199
287 272 275 282 289 285 275 269 268 267 267 270 271 271 273 273 277 280 279 279 283 288 291 287 280 275 266 256 254 251 242 237 230 221 217 217 216 215 213 214 214 213 214 214 213 217 224 230 227 219 215 214 211 208 203 195 194 201 197 185 183 189
284 270 264 272 280 280 274 271 272 272 272 272 270 272 275 271 271 276 278 277 279 285 291 291 284 276 266 256 252 249 240 235 229 221 218 216 215 215 212 210 211 212 213 213 215 217 222 227 231 226 217 213 205 193 193 197 190 188 194 193 187 186
294 288 280 273 273 272 270 266 264 265 267 269 267 265 266 264 265 269 271 271 273 278 287 290 285 274 265 256 249 244 237 232 226 221 220 218 215 212 208 205 207 211 212 213 216 220 223 224 228 226 219 214 206 194 191 195 193 188 187 191 189 182
312 303 297 289 281 277 275 270 267 269 271 270 268 266 266 265 264 262 262 263 269 277 282 283 278 272 266 255 245 240 236 231 225 220 218 215 211 207 203 203 204 208 212 213 216 222 224 223 222 223 219 212 205 200 196 193 191 185 182 188 186 181
333 319 311 304 295 287 284 283 282 283 283 284 284 281 276 275 273 267 263 262 265 272 277 276 271 267 265 255 244 240 237 232 229 227 220 212 208 204 202 203 204 209 212 213 217 221 223 223 219 216 219 217 209 202 197 191 184 176 179 187 185 184
353 343 335 325 313 303 297 294 289 285 286 288 288 287 284 283 280 271 264 261 262 267 273 272 270 265 259 253 247 241 236 231 228 226 216 207 204 204 204 204 206 210 214 214 216 219 222 224 222 218 216 215 209 203 198 190 180 175 182 188 186 182
2 356 350 339 329 321 309 302 297 291 291 288 282 282 282 284 284 272 260 260 262 266 271 270 267 263 255 252 249 240 233 227 222 215 206 203 203 203 203 205 208 213 215 215 216 221 222 219 220 220 217 211 205 203 198 186 183 188 187 188 189 184
357 351 347 342 341 336 321 315 316 311 310 308 299 283 269 275 284 273 256 256 259 263 267 264 261 259 252 248 242 234 229 220 212 207 201 203 205 204 204 207 210 213 214 216 217 218 216 212 215 217 214 210 203 199 195 186 186 191 191 191 190 186
348 345 347 347 340 334 322 317 323 328 333 328 308 289 275 275 282 270 253 252 257 261 261 256 254 255 249 239 226 220 219 209 203 204 203 204 205 204 205 207 209 210 212 216 217 212 208 207 213 215 210 206 199 193 195 192 188 191 192 191 191 189